TimePST,TemperatureF,Dew PointF,Humidity,Sea Level PressureIn,VisibilityMPH,Wind Direction,Wind SpeedMPH,Gust SpeedMPH,PrecipitationIn,Events,Conditions,WindDirDegrees,DateUTC
12:53 AM,37.0,36.0,96,30.25,0.2,Calm,Calm,-,0.00,Fog,Fog,0,2012-12-06 08:53:00
1:23 AM,35.6,35.6,100,30.24,0.2,Calm,Calm,-,N/A,Fog,Fog,0,2012-12-06 09:23:00
1:46 AM,35.6,35.6,100,30.24,0.2,ESE,3.5,-,N/A,Fog,Fog,120,2012-12-06 09:46:00
1:53 AM,36.0,36.0,100,30.25,0.2,East,4.6,-,N/A,Fog,Fog,100,2012-12-06 09:53:00
2:10 AM,35.6,35.6,100,30.24,0.5,Calm,Calm,-,N/A,Fog,Fog,0,2012-12-06 10:10:00
2:18 AM,37.4,37.4,100,30.25,0.2,Calm,Calm,-,N/A,Fog,Fog,0,2012-12-06 10:18:00
2:26 AM,37.4,37.4,100,30.25,0.2,Calm,Calm,-,N/A,Fog,Fog,0,2012-12-06 10:26:00
2:53 AM,37.0,36.0,96,30.26,0.5,West,3.5,-,N/A,Fog,Fog,280,2012-12-06 10:53:00
3:53 AM,37.0,37.0,100,30.24,0.5,Calm,Calm,-,N/A,Fog,Fog,0,2012-12-06 11:53:00
4:53 AM,37.0,37.0,100,30.24,0.5,Calm,Calm,-,N/A,Fog,Fog,0,2012-12-06 12:53:00
5:53 AM,37.0,36.0,96,30.23,0.8,Calm,Calm,-,N/A,,Mist,0,2012-12-06 13:53:00
6:53 AM,37.0,37.0,100,30.23,0.8,Calm,Calm,-,N/A,,Overcast,0,2012-12-06 14:53:00
7:26 AM,37.4,37.4,100,30.22,1.0,Calm,Calm,-,N/A,,Overcast,0,2012-12-06 15:26:00
7:53 AM,37.9,37.0,97,30.22,1.0,Calm,Calm,-,N/A,,Overcast,0,2012-12-06 15:53:00
8:53 AM,39.0,37.9,96,30.23,1.5,Calm,Calm,-,N/A,,Overcast,0,2012-12-06 16:53:00
9:44 AM,41.0,39.2,93,30.23,10.0,Calm,Calm,-,N/A,,Mostly Cloudy,0,2012-12-06 17:44:00
9:53 AM,41.0,39.0,93,30.23,10.0,Calm,Calm,-,N/A,,Mostly Cloudy,0,2012-12-06 17:53:00
10:31 AM,42.8,39.2,87,30.23,9.0,WSW,3.5,-,N/A,,Overcast,250,2012-12-06 18:31:00
10:53 AM,44.1,39.9,85,30.23,10.0,SSW,5.8,-,N/A,,Mostly Cloudy,200,2012-12-06 18:53:00
11:33 AM,44.6,39.2,81,30.21,10.0,South,9.2,-,N/A,,Mostly Cloudy,190,2012-12-06 19:33:00
11:53 AM,46.0,39.9,79,30.20,10.0,South,10.4,-,N/A,,Mostly Cloudy,180,2012-12-06 19:53:00
12:53 PM,46.9,39.9,77,30.18,10.0,South,8.1,-,N/A,,Overcast,190,2012-12-06 20:53:00
1:53 PM,48.0,41.0,77,30.17,10.0,South,11.5,-,N/A,,Overcast,190,2012-12-06 21:53:00
2:53 PM,48.0,41.0,77,30.17,10.0,SW,11.5,-,0.00,,Overcast,220,2012-12-06 22:53:00
3:53 PM,46.9,42.1,83,30.17,10.0,South,8.1,-,N/A,,Mostly Cloudy,190,2012-12-06 23:53:00
4:53 PM,46.9,41.0,80,30.16,10.0,South,10.4,-,0.00,,Overcast,190,2012-12-07 00:53:00
5:29 PM,46.4,42.8,87,30.16,10.0,SSW,9.2,-,N/A,,Overcast,200,2012-12-07 01:29:00
5:53 PM,46.0,42.1,86,30.17,10.0,SSW,5.8,-,0.00,Rain,Light Rain,200,2012-12-07 01:53:00
6:09 PM,46.4,42.8,87,30.17,10.0,SSW,3.5,-,0.01,Rain,Light Rain,200,2012-12-07 02:09:00
6:53 PM,46.0,42.1,86,30.18,10.0,South,8.1,-,0.01,Rain,Light Rain,190,2012-12-07 02:53:00
7:53 PM,44.1,43.0,96,30.19,10.0,SSE,5.8,-,0.01,,Overcast,160,2012-12-07 03:53:00
8:53 PM,45.0,43.0,93,30.20,10.0,South,5.8,-,N/A,,Overcast,190,2012-12-07 04:53:00
9:53 PM,45.0,42.1,90,30.20,10.0,South,6.9,-,0.00,,Overcast,180,2012-12-07 05:53:00
10:53 PM,45.0,43.0,93,30.21,10.0,Calm,Calm,-,0.00,,Overcast,0,2012-12-07 06:53:00
11:53 PM,44.1,42.1,93,30.21,10.0,South,5.8,-,0.02,,Overcast,170,2012-12-07 07:53:00